カタログに戻る

FENGYUN 1C DEB

運用中PO
NORAD 32324·DEBRIS·🇨🇳 China

打ち上げ May 10, 1999 から Taiyuan Satellite Launch Center

Loading…

次のパス (今後24時間)

TLE

最新Source: Space-Track

元期: Sep 14, 2026, 14:16 UTC

1 32324U 99025CXR 26257.59467105  .00000400  00000-0  25383-3 0  9996
2 32324  99.5514  20.4931 0049280 343.1093  16.8433 14.09588653678841

AllMySatでFENGYUN 1C DEBをリアルタイム追跡

Download on the App Store